This demonstration page uses our WeatherBlox Daily Observations layout. Learn more.

38.89511, -77.03637

Hourly Observations for September 8, 2016

Temp ( °F °C ) Dew Point ( °F °C ) Humidity (%) Winds ( mph kmh ) Pressure ( in mb ) Visibility ( mi km ) Precip ( " mm )
12:52 am 00:52 Cloudy 77 25 72 22.2 85 85 S 5 7 29.98 1015 10 16.0934 0 0
1:13 am 01:13 Mostly Cloudy 76 24.4 72 22.2 88 88 SSW 5 7 29.97 1015 10 16.0934 0 0
1:52 am 01:52 Mostly Cloudy 76 24.4 72 22.2 88 88 S 6 9 29.97 1015 10 16.0934 0 0
2:52 am 02:52 Mostly Cloudy 76 24.4 73 22.8 91 91 S 6 9 29.97 1015 10 16.0934 0 0
3:52 am 03:52 Cloudy 76 24.4 72 22.2 88 88 SSW 5 7 29.96 1014 10 16.0934 0 0
4:52 am 04:52 Cloudy 76 24.4 72 22.2 88 88 S 6 9 29.96 1014 10 16.0934 0 0
5:04 am 05:04 Cloudy 75 24 72 22 89 89 S 6 9 29.97 1015 10 16.0934 0 0
5:52 am 05:52 Mostly Cloudy 75 23.9 72 22.2 90 90 SSW 6 9 29.95 1014 10 16.0934 0 0
6:30 am 06:30 Mostly Cloudy 75 24 72 22 89 89 SSW 5 7 29.97 1015 10 16.0934 0 0
6:52 am 06:52 Mostly Cloudy 75 23.9 72 22.2 90 90 SSW 5 7 29.96 1015 10 16.0934 0 0
7:52 am 07:52 Partly Cloudy 77 25 73 22.8 88 88 Calm 29.97 1015 10 16.0934 0 0
8:52 am 08:52 Partly Cloudy 79 26.1 74 23.3 85 85 S 9 15 29.97 1015 10 16.0934 0 0
9:52 am 09:52 Mostly Sunny 82 27.8 75 23.9 79 79 S 9 15 29.98 1015 10 16.0934 0 0
10:34 am 10:34 Mostly Sunny 91 33 70 21 49 49 W 10 17 29.97 1015 10 16.0934 0 0
10:52 am 10:52 Mostly Sunny 92 33.3 70 21.1 49 49 NW 9 15 29.97 1015 10 16.0934 0 0
11:52 am 11:52 Mostly Sunny 93 33.9 70 21.1 47 47 NNW 14 22 29.97 1015 10 16.0934 0 0
12:52 pm 12:52 Partly Cloudy 94 34.4 70 21.1 46 46 W 10 17 29.95 1014 10 16.0934 0 0
1:52 pm 13:52 Partly Cloudy 96 35.6 69 20.6 41 41 WNW 7 11 29.94 1014 10 16.0934 0 0
2:52 pm 14:52 Mostly Cloudy 96 35.6 69 20.6 41 41 WSW 8 13 29.92 1013 10 16.0934 0 0
3:52 pm 15:52 Mostly Cloudy 96 35.6 68 20 40 40 WSW 13 20 29.9 1012 10 16.0934 0 0
4:52 pm 16:52 Mostly Cloudy 96 35.6 70 21.1 43 43 WSW 16 26 29.88 1012 10 16.0934 0 0
5:52 pm 17:52 Mostly Cloudy 94 34.4 70 21.1 46 46 SSW 15 24 29.88 1012 10 16.0934 0 0
6:52 pm 18:52 Mostly Cloudy 91 32.8 71 21.7 52 52 SSW 12 19 29.88 1012 10 16.0934 0 0
7:52 pm 19:52 Partly Cloudy 88 31.1 73 22.8 61 61 S 8 13 29.89 1012 10 16.0934 0 0
8:52 pm 20:52 Mostly Clear 85 29.4 76 24.4 75 75 S 7 11 29.89 1012 10 16.0934 0 0
9:52 pm 21:52 Mostly Cloudy 84 28.9 76 24.4 77 77 S 8 13 29.9 1013 10 16.0934 0 0
10:52 pm 22:52 Mostly Cloudy 83 28.3 76 24.4 79 79 SSW 5 7 29.91 1013 10 16.0934 0 0
11:52 pm 23:52 Mostly Cloudy 83 28.3 75 23.9 77 77 S 6 9 29.91 1013 10 16.0934 0 0

Powered by AerisWeather